Flag for Germany Weather past 2 weeks in Remscheid, North Rhine-Westphalia, Germany

63 °F

Partly sunny.

Feels Like: 63 °F
Forecast: 49 / 55 °F
Wind: 14 mph from Southwest

Location: Duesseldorf

Current Time: Oct 7, 2015 at 3:06:48 PM

Latest Report: Oct 7, 2015 at 2:20 PM

Visibility: N/A

Pressure: 29.86 "Hg

Humidity: 77%

Dew point: 55 °F

Location of RemscheidLocation

Historic Weather in Remscheid — Graph


Remscheid temperature yesterday

Maximum temperature yesterday: 68 °F (at 1:20 PM)
Minimum temperature yesterday: 57 °F (at 12:20 AM)
Average temperature yesterday: 62 °F

Past Weeks' High & Low Weather Summary

High68 °F (Oct 3, 3:20 PM)100% (Sep 23, 3:50 AM)30.63 "Hg (Sep 23, 3:50 AM)
Low37 °F (Oct 2, 5:20 AM)43% (Sep 30, 3:20 PM)29.50 "Hg (Sep 22, 3:50 PM)
Average55 °F79%30.15 "Hg
* Reported Sep 22 1:20 PM — Oct 7 1:50 PM, Remscheid, Weather by CustomWeather, © 2015

Note: Actual official high and low records may vary slightly from our data, if they occured in-between our weather recording intervals... More about our weather records


Remscheid weather history for previous 24 hours

Time TempWeatherWind HumidityBarometerVisibility
1:50 PM
Wed, Oct 7
63 °FPartly sunny.10 mph77%29.86 "HgN/A
1:20 PM63 °FLight rain. Broken clouds.13 mph73%29.83 "HgN/A
12:50 PM63 °FPartly sunny.13 mph77%29.83 "HgN/A
12:20 PM63 °FPartly sunny.15 mph77%29.83 "HgN/A
11:50 AM63 °FPartly sunny.13 mph83%29.83 "HgN/A
11:20 AM61 °FPartly sunny.10 mph83%29.83 "HgN/A
10:50 AM61 °FPartly sunny.13 mph83%29.80 "HgN/A
10:20 AM61 °FPartly sunny.13 mph83%29.80 "HgN/A
9:50 AM61 °FBroken clouds.13 mph88%29.80 "HgN/A
9:20 AM61 °FPartly sunny.9 mph88%29.77 "HgN/A
8:50 AM59 °FPartly sunny.8 mph94%29.77 "HgN/A
8:20 AM59 °FPartly cloudy.10 mph94%29.77 "HgN/A
7:50 AM59 °FPartly cloudy.8 mph94%29.74 "HgN/A
7:20 AM59 °FPassing clouds.9 mph94%29.74 "HgN/A
6:50 AM59 °FPassing clouds.7 mph88%29.74 "HgN/A
6:20 AM61 °FClear.7 mph88%29.71 "Hg10 mi
5:50 AM59 °FClear.8 mph94%29.71 "Hg10 mi
5:20 AM59 °FClear.8 mph94%29.71 "Hg10 mi
4:50 AM59 °FClear.8 mph88%29.71 "Hg10 mi
4:20 AM59 °FClear.7 mph94%29.71 "Hg10 mi
3:50 AM59 °FPassing clouds.9 mph94%29.71 "HgN/A
3:20 AM59 °FPassing clouds.8 mph94%29.68 "HgN/A
2:50 AM61 °FPassing clouds.9 mph88%29.68 "HgN/A
2:20 AM61 °FPartly cloudy.8 mph94%29.68 "HgN/A
1:50 AM61 °FPassing clouds.10 mph94%29.68 "HgN/A
1:20 AM61 °FPassing clouds.9 mph94%29.68 "HgN/A
12:50 AM61 °FClear.10 mph88%29.68 "Hg10 mi
11:50 PM
Tue, Oct 6
61 °FClear.12 mph88%29.65 "Hg10 mi
11:20 PM61 °FClear.13 mph94%29.65 "Hg10 mi
10:50 PM61 °FClear.10 mph94%29.65 "Hg10 mi
10:20 PM61 °FClear.12 mph94%29.65 "Hg10 mi
9:50 PM63 °FClear.13 mph88%29.65 "Hg10 mi
9:20 PM63 °FClear.12 mph94%29.65 "Hg10 mi
8:50 PM63 °FClear.10 mph94%29.65 "Hg10 mi
8:20 PM63 °FClear.9 mph94%29.62 "Hg10 mi
7:50 PM64 °FBroken clouds.9 mph88%29.62 "HgN/A
7:20 PM64 °FBroken clouds.9 mph88%29.62 "HgN/A
6:50 PM64 °FBroken clouds.9 mph88%29.62 "HgN/A
6:20 PM64 °FBroken clouds.10 mph94%29.62 "HgN/A
5:50 PM66 °FLight rain. Broken clouds.13 mph83%29.59 "HgN/A
5:20 PM66 °FLight rain. Broken clouds.7 mph83%29.59 "HgN/A
4:50 PM68 °FLight rain. Broken clouds.10 mph78%29.59 "HgN/A
4:20 PM68 °FBroken clouds.9 mph78%29.59 "HgN/A
3:50 PM68 °FBroken clouds.12 mph78%29.59 "HgN/A
3:20 PM68 °FBroken clouds.12 mph73%29.59 "HgN/A
Weather by CustomWeather, © 2015

See weather overviewHow to use our weather pages